Location: Franzen
(48.6167°N, 15.3833°E)
Time: 02:19:55
(UTC+00:00)

ISS - Pass Details

Date: 29 June 2021
Orbit: 419 x 421 km, 51.6° (Epoch: 02 August)

Event Time Altitude Azimuth Distance (km) Brightness Sun altitude
Exits shadow 02:17:30 - 210° (SSW) 1,714 -1.3 -6.0°
Reaches altitude 10° 02:18:05 10° 206° (SSW) 1,496 -1.6 -5.9°
Maximum altitude 02:21:03 29° 144° (SE) 796 -2.4 -5.5°
Drops below altitude 10° 02:24:01 10° 82° (E) 1,503 0.0 -5.2°
Sets 02:26:17 0° 71° (ENE) 2,370 1.4 -4.9°
